EW5168 Weather Reports


time (UTC)temp
C
wind
direction
speed
KPH
gust
KPH
rain 1hr
cm
rain 24hr
cm
rain mn
cm
humidity
%
barometer
mb
20260906234613 33 147 3.2 14.5 0.00 0.00 0.00 36 1010.7
20260906234111 33 199 3.2 11.3 0.00 0.00 0.00 36 1010.7
20260906233609 34 78 4.8 16.1 0.00 0.00 0.00 37 1010.7
20260906233108 34 80 4.8 16.1 0.00 0.00 0.00 37 1010.8
20260906232608 35 140 3.2 16.1 0.00 0.00 0.00 37 1010.7
20260906232107 35 165 3.2 11.3 0.00 0.00 0.00 35 1010.7
20260906231607 35 203 3.2 11.3 0.00 0.00 0.00 35 1010.7
20260906231107 35 136 4.8 12.9 0.00 0.00 0.00 35 1010.7
20260906230611 35 200 6.4 14.5 0.00 0.00 0.00 35 1010.7
20260906230607 35 90 4.8 12.9 0.00 0.00 0.00 35 1010.6
20260906225608 35 202 4.8 14.5 0.00 0.00 0.00 35 1010.8
20260906225108 35 167 3.2 9.7 0.00 0.00 0.00 35 1010.8
20260906225104 35 92 3.2 14.5 0.00 0.00 0.00 34 1010.8
20260906224103 35 186 3.2 9.7 0.00 0.00 0.00 34 1010.8
20260906223601 35 150 3.2 12.9 0.00 0.00 0.00 34 1010.8
20260906223101 35 152 3.2 12.9 0.00 0.00 0.00 35 1010.8
20260906222602 35 92 3.2 9.7 0.00 0.00 0.00 35 1010.9
20260906222057 35 170 4.8 12.9 0.00 0.00 0.00 34 1010.9
20260906221557 35 165 4.8 12.9 0.00 0.00 0.00 34 1011.0
20260906221057 36 161 3.2 11.3 0.00 0.00 0.00 34 1011.1
20260906220554 36 145 3.2 11.3 0.00 0.00 0.00 34 1011.1
20260906220054 35 196 4.8 16.1 0.00 0.00 0.00 34 1011.0
20260906215553 35 128 4.8 16.1 0.00 0.00 0.00 34 1010.9
20260906215053 35 198 4.8 11.3 0.00 0.00 0.00 33 1010.9
20260906214557 35 176 4.8 14.5 0.00 0.00 0.00 34 1011.0
20260906214553 35 167 4.8 12.9 0.00 0.00 0.00 34 1010.9
20260906213552 35 106 4.8 14.5 0.00 0.00 0.00 34 1011.0
20260906213058 35 168 3.2 9.7 0.00 0.00 0.00 34 1011.2
20260906213053 35 114 3.2 11.3 0.00 0.00 0.00 34 1011.2
20260906212053 35 182 1.6 9.7 0.00 0.00 0.00 34 1011.4
20260906211553 35 152 1.6 4.8 0.00 0.00 0.00 34 1011.4
20260906211053 35 172 1.6 11.3 0.00 0.00 0.00 34 1011.3
20260906210552 35 205 3.2 11.3 0.00 0.00 0.00 34 1011.3
20260906210055 35 172 4.8 14.5 0.00 0.00 0.00 34 1011.4
20260906210051 35 167 4.8 14.5 0.00 0.00 0.00 34 1011.4
20260906205700 35 154 3.2 9.7 0.00 0.00 0.00 33 1011.5
20260906205656 35 115 3.2 11.3 0.00 0.00 0.00 33 1011.4
20260906204052 35 196 3.2 8.0 0.00 0.00 0.00 33 1011.6
20260906203550 35 205 4.8 17.7 0.00 0.00 0.00 33 1011.6
20260906203049 35 169 4.8 17.7 0.00 0.00 0.00 32 1011.6
20260906202549 36 225 3.2 14.5 0.00 0.00 0.00 32 1011.6
20260906202047 36 178 3.2 14.5 0.00 0.00 0.00 31 1011.7
20260906201546 35 96 1.6 9.7 0.00 0.00 0.00 32 1011.8
20260906201047 34 179 1.6 9.7 0.00 0.00 0.00 32 1011.9
20260906200544 34 326 0.0 3.2 0.00 0.00 0.00 31 1012.0
20260906200043 34 80 0.0 3.2 0.00 0.00 0.00 32 1011.9
20260906195541 34 80 0.0 3.2 0.00 0.00 0.00 32 1011.9
20260906195041 35 80 1.6 4.8 0.00 0.00 0.00 34 1011.9
20260906194543 35 111 1.6 8.0 0.00 0.00 0.00 34 1012.1
20260906194539 35 80 1.6 4.8 0.00 0.00 0.00 34 1012.0
20260906193543 35 221 1.6 4.8 0.00 0.00 0.00 33 1012.3
20260906193538 35 105 1.6 8.0 0.00 0.00 0.00 34 1012.2
20260906192541 35 132 1.6 9.7 0.00 0.00 0.00 33 1012.3
20260906192537 35 170 1.6 6.4 0.00 0.00 0.00 33 1012.3
20260906191540 36 221 4.8 17.7 0.00 0.00 0.00 32 1012.4
20260906191536 35 94 3.2 17.7 0.00 0.00 0.00 33 1012.3
20260906190536 35 161 6.4 16.1 0.00 0.00 0.00 33 1012.3
20260906190033 35 209 4.8 16.1 0.00 0.00 0.00 33 1012.4
20260906185532 35 164 1.6 14.5 0.00 0.00 0.00 32 1012.5
20260906185032 36 270 3.2 14.5 0.00 0.00 0.00 32 1012.5
20260906184532 36 155 4.8 17.7 0.00 0.00 0.00 32 1012.6
20260906184033 36 225 6.4 17.7 0.00 0.00 0.00 32 1012.7
20260906183533 36 217 4.8 14.5 0.00 0.00 0.00 32 1012.7
20260906183032 35 187 4.8 14.5 0.00 0.00 0.00 32 1012.7
20260906182532 36 206 3.2 12.9 0.00 0.00 0.00 31 1012.8
20260906182033 36 206 3.2 14.5 0.00 0.00 0.00 31 1012.8
20260906181532 36 261 3.2 14.5 0.00 0.00 0.00 31 1012.8
20260906181033 36 109 1.6 11.3 0.00 0.00 0.00 30 1012.8
20260906180535 35 141 1.6 11.3 0.00 0.00 0.00 30 1013.0
20260906180531 35 89 3.2 14.5 0.00 0.00 0.00 30 1013.1
20260906175531 35 91 4.8 14.5 0.00 0.00 0.00 30 1013.2
20260906175030 35 256 3.2 14.5 0.00 0.00 0.00 31 1013.2
20260906174532 35 159 4.8 14.5 0.00 0.00 0.00 31 1013.4
20260906174528 34 74 3.2 8.0 0.00 0.00 0.00 31 1013.4
20260906173528 35 226 4.8 14.5 0.00 0.00 0.00 30 1013.6
20260906173027 35 186 4.8 16.1 0.00 0.00 0.00 29 1013.6
20260906172527 35 239 4.8 16.1 0.00 0.00 0.00 29 1013.7
20260906172026 35 72 4.8 11.3 0.00 0.00 0.00 28 1013.9
20260906171524 34 126 4.8 11.3 0.00 0.00 0.00 28 1013.9
20260906171024 34 103 3.2 11.3 0.00 0.00 0.00 27 1014.1
20260906170525 34 95 3.2 11.3 0.00 0.00 0.00 27 1014.1
20260906170024 33 86 3.2 12.9 0.00 0.00 0.00 26 1014.2
20260906165526 33 163 3.2 12.9 0.00 0.00 0.00 25 1014.2
20260906165028 33 76 3.2 9.7 0.00 0.00 0.00 22 1014.2
20260906165024 33 173 3.2 9.7 0.00 0.00 0.00 23 1014.2
20260906164024 33 88 1.6 9.7 0.00 0.00 0.00 20 1014.3
20260906163528 33 86 1.6 11.3 0.00 0.00 0.00 18 1014.4
20260906163524 33 80 1.6 11.3 0.00 0.00 0.00 20 1014.4
20260906163127 32 346 3.2 11.3 0.00 0.00 0.00 17 1014.4
20260906162024 32 215 3.2 9.7 0.00 0.00 0.00 15 1014.5
20260906162020 32 103 3.2 11.3 0.00 0.00 0.00 16 1014.4
20260906161016 32 86 1.6 6.4 0.00 0.00 0.00 13 1014.5
20260906160516 32 130 1.6 8.0 0.00 0.00 0.00 11 1014.5
20260906160014 32 92 1.6 8.0 0.00 0.00 0.00 8 1014.5
20260906155520 31 99 3.2 9.7 0.00 0.00 0.00 3 1014.4
20260906155515 32 215 3.2 9.7 0.00 0.00 0.00 7 1014.5
20260906154514 31 115 3.2 9.7 0.00 0.00 0.00 1 1014.4
20260906154017 31 64 1.6 8.0 0.00 0.00 0.00 1 1014.4
20260906153511 31 132 1.6 8.0 0.00 0.00 0.00 1 1014.3
20260906153010 31 145 1.6 6.4 0.00 0.00 0.00 1 1014.3
20260906152512 30 172 3.2 9.7 0.00 0.00 0.00 1 1014.3
20260906152508 30 176 3.2 9.7 0.00 0.00 0.00 1 1014.3
20260906151508 30 175 3.2 14.5 0.00 0.00 0.00 1 1014.4
20260906151008 30 153 3.2 14.5 0.00 0.00 0.00 1 1014.4
20260906150510 30 84 1.6 6.4 0.00 0.00 0.00 1 1014.3
20260906150506 29 88 1.6 6.4 0.00 0.00 0.00 1 1014.2
20260906150110 30 172 1.6 6.4 0.00 0.00 0.00 1 1014.2
20260906145004 29 118 3.2 6.4 0.00 0.00 0.00 1 1014.2
20260906144502 28 80 3.2 6.4 0.00 0.00 0.00 1 1014.1
20260906144002 28 80 1.6 6.4 0.00 0.00 0.00 1 1014.1
20260906143503 28 76 1.6 6.4 0.00 0.00 0.00 1 1014.1
20260906143000 28 193 1.6 6.4 0.00 0.00 0.00 1 1014.1
20260906142504 27 81 1.6 6.4 0.00 0.00 0.00 1 1014.1
20260906142500 27 236 3.2 6.4 0.00 0.00 0.00 1 1014.1
20260906141500 27 105 0.0 4.8 0.00 0.00 0.00 1 1014.1
20260906140959 26 105 0.0 4.8 0.00 0.00 0.00 1 1014.1
20260906140502 26 105 1.6 4.8 0.00 0.00 0.00 1 1014.1
20260906140458 26 105 0.0 3.2 0.00 0.00 0.00 1 1014.1
20260906135458 25 105 1.6 4.8 0.00 0.00 0.00 1 1014.1
20260906134958 25 105 1.6 4.8 0.00 0.00 0.00 1 1014.1
20260906134457 25 114 1.6 3.2 0.00 0.00 0.00 1 1014.1
20260906134002 25 114 1.6 3.2 0.00 0.00 0.00 1 1014.1
20260906133958 25 114 1.6 3.2 0.00 0.00 0.00 1 1014.1
20260906132958 25 169 0.0 3.2 0.00 0.00 0.00 1 1014.1
20260906132459 25 169 0.0 3.2 0.00 0.00 0.00 1 1014.1
20260906131957 25 169 1.6 3.2 0.00 0.00 0.00 1 1014.1
20260906131458 24 169 1.6 3.2 0.00 0.00 0.00 1 1014.1
20260906130958 24 169 0.0 3.2 0.00 0.00 0.00 1 1014.0
20260906130458 24 169 0.0 3.2 0.00 0.00 0.00 1 1014.0
20260906125956 24 169 0.0 1.6 0.00 0.00 0.00 1 1014.0
20260906125457 24 169 0.0 3.2 0.00 0.00 0.00 1 1013.7
20260906125453 24 169 0.0 3.2 0.00 0.00 0.00 1 1013.9
20260906124450 24 169 0.0 0.0 0.00 0.00 0.00 1 1013.7
20260906123952 24 169 0.0 0.0 0.00 0.00 0.00 1 1013.6
20260906123948 24 169 0.0 0.0 0.00 0.00 0.00 1 1013.7
20260906122948 24 169 0.0 0.0 0.00 0.00 0.00 1 1013.5
20260906122944 24 169 0.0 0.0 0.00 0.00 0.00 1 1013.5
20260906121944 24 169 0.0 0.0 0.00 0.00 0.00 1 1013.4
20260906121940 24 169 0.0 0.0 0.00 0.00 0.00 1 1013.2
20260906121543 24 169 0.0 0.0 0.00 0.00 0.00 1 1013.1
20260906120435 24 170 0.0 0.0 0.00 0.00 0.00 1 1013.0
20260906115934 24 170 0.0 0.0 0.00 0.00 0.00 1 1012.9
20260906115432 24 170 0.0 0.0 0.00 0.00 0.00 1 1012.9
20260906114932 24 170 0.0 0.0 0.00 0.00 0.00 1 1012.9
20260906114432 24 170 0.0 0.0 0.00 0.00 0.00 1 1012.8
20260906113934 24 170 0.0 0.0 0.00 0.00 0.00 1 1012.7
20260906113930 24 170 0.0 0.0 0.00 0.00 0.00 1 1012.6
20260906112930 24 170 0.0 0.0 0.00 0.00 0.00 1 1012.7
20260906112435 24 170 0.0 0.0 0.00 0.00 0.00 1 1012.6
20260906112431 24 170 0.0 0.0 0.00 0.00 0.00 1 1012.6
20260906112036 24 170 0.0 0.0 0.00 0.00 0.00 1 1012.5
20260906110930 24 170 0.0 0.0 0.00 0.00 0.00 1 1012.5
20260906110429 24 170 0.0 0.0 0.00 0.00 0.00 1 1012.4
20260906105929 24 170 0.0 0.0 0.00 0.00 0.00 1 1012.3
20260906105430 25 170 0.0 0.0 0.00 0.00 0.00 1 1012.3
20260906104930 25 170 0.0 0.0 0.00 0.00 0.00 1 1012.2
20260906104434 25 170 0.0 0.0 0.00 0.00 0.00 1 1012.1
20260906104430 25 170 0.0 0.0 0.00 0.00 0.00 1 1012.2
20260906103428 25 170 0.0 0.0 0.00 0.00 0.00 1 1012.1
20260906102932 25 170 0.0 0.0 0.00 0.00 0.00 1 1012.2
20260906102928 25 170 0.0 0.0 0.00 0.00 0.00 1 1012.2
20260906101925 25 170 0.0 0.0 0.00 0.00 0.00 1 1012.1
20260906101427 25 170 0.0 1.6 0.00 0.00 0.00 1 1012.1
20260906101423 25 170 0.0 1.6 0.00 0.00 0.00 1 1012.1
20260906100422 25 170 0.0 1.6 0.00 0.00 0.00 1 1012.1
20260906095920 25 170 0.0 1.6 0.00 0.00 0.00 1 1012.0
20260906095424 25 170 1.6 4.8 0.00 0.00 0.00 1 1012.1
20260906095419 25 169 0.0 3.2 0.00 0.00 0.00 1 1012.1
20260906095025 25 157 1.6 4.8 0.00 0.00 0.00 1 1012.0
20260906093923 25 171 1.6 6.4 0.00 0.00 0.00 1 1011.8
20260906093919 25 183 1.6 6.4 0.00 0.00 0.00 1 1011.9
20260906092919 25 156 1.6 4.8 0.00 0.00 0.00 1 1011.8
20260906092419 25 156 1.6 4.8 0.00 0.00 0.00 1 1011.8
20260906091923 25 163 1.6 6.4 0.00 0.00 0.00 1 1011.8
20260906091919 25 180 1.6 4.8 0.00 0.00 0.00 1 1011.8
20260906090919 25 169 1.6 6.4 0.00 0.00 0.00 1 1011.7
20260906090420 25 171 1.6 3.2 0.00 0.00 0.00 1 1011.7
20260906085919 25 171 1.6 3.2 0.00 0.00 0.00 1 1011.8
20260906085419 25 171 0.0 3.2 0.00 0.00 0.00 1 1011.8
20260906084918 25 149 0.0 3.2 0.00 0.00 0.00 1 1011.8
20260906084419 25 149 0.0 3.2 0.00 0.00 0.00 1 1011.8
20260906083921 25 149 0.0 3.2 0.00 0.00 0.00 1 1011.8
20260906083917 25 149 0.0 3.2 0.00 0.00 0.00 1 1011.8
20260906082914 25 149 1.6 3.2 0.00 0.00 0.00 1 1011.7
20260906082415 25 149 0.0 3.2 0.00 0.00 0.00 1 1011.8
20260906081915 25 162 0.0 3.2 0.00 0.00 0.00 1 1011.9
20260906081415 26 162 0.0 3.2 0.00 0.00 0.00 1 1011.9
20260906080915 26 162 0.0 3.2 0.00 0.00 0.00 1 1012.0
20260906080413 26 192 1.6 3.2 0.00 0.00 0.00 1 1012.1
20260906075911 26 192 0.0 3.2 0.00 0.00 0.00 1 1012.1
20260906075411 26 153 0.0 3.2 0.00 0.00 0.00 1 1012.1
20260906074911 26 153 0.0 3.2 0.00 0.00 0.00 1 1012.1
20260906074411 26 153 0.0 1.6 0.00 0.00 0.00 1 1012.2
20260906073909 26 153 0.0 1.6 0.00 0.00 0.00 1 1012.3
20260906073406 26 153 0.0 3.2 0.00 0.00 0.00 1 1012.4
20260906072909 26 168 0.0 3.2 0.00 0.00 0.00 1 1012.3
20260906072905 26 153 1.6 3.2 0.00 0.00 0.00 1 1012.4
20260906071906 26 148 1.6 3.2 0.00 0.00 0.00 1 1012.5
20260906071411 26 190 1.6 8.0 0.00 0.00 0.00 1 1012.5
20260906071407 26 190 1.6 8.0 0.00 0.00 0.00 1 1012.5
20260906070405 26 169 1.6 6.4 0.00 0.00 0.00 1 1012.5
20260906065906 26 151 1.6 3.2 0.00 0.00 0.00 1 1012.6
20260906065403 26 161 1.6 3.2 0.00 0.00 0.00 1 1012.7
20260906064903 26 162 1.6 3.2 0.00 0.00 0.00 1 1012.7
20260906064401 26 172 0.0 4.8 0.00 0.00 0.00 1 1012.8
20260906063901 27 167 0.0 4.8 0.00 0.00 0.00 1 1012.8
20260906063402 27 165 0.0 3.2 0.00 0.00 0.00 1 1012.8
20260906062901 27 146 0.0 3.2 0.00 0.00 0.00 1 1012.9
20260906062359 27 146 0.0 1.6 0.00 0.00 0.00 1 1012.8
20260906061857 27 146 1.6 3.2 0.00 0.00 0.00 1 1012.8
20260906061401 27 171 0.0 4.8 0.00 0.00 0.00 1 1012.9
20260906061357 27 146 1.6 3.2 0.00 0.00 0.00 1 1012.8
20260906060357 27 171 1.6 8.0 0.00 0.00 0.00 1 1013.0
20260906055857 27 171 1.6 8.0 0.00 0.00 0.00 1 1012.8
20260906055357 27 184 3.2 8.0 0.00 0.00 0.00 1 1012.8
20260906054857 27 208 3.2 9.7 0.00 0.00 0.00 1 1012.7
20260906054354 27 179 1.6 9.7 0.00 0.00 0.00 1 1012.8
20260906053855 27 179 1.6 8.0 0.00 0.00 0.00 1 1012.8
20260906053359 27 178 3.2 9.7 0.00 0.00 0.00 1 1012.9
20260906053355 27 190 3.2 8.0 0.00 0.00 0.00 1 1012.8
20260906052353 27 180 3.2 9.7 0.00 0.00 0.00 1 1012.8
20260906051853 27 194 1.6 8.0 0.00 0.00 0.00 1 1012.7
20260906051357 28 153 3.2 8.0 0.00 0.00 0.00 1 1012.9
20260906051353 27 210 3.2 8.0 0.00 0.00 0.00 1 1012.8
20260906050358 28 162 3.2 12.9 0.00 0.00 0.00 1 1013.0
20260906050353 28 155 3.2 12.9 0.00 0.00 0.00 1 1013.0
20260906045356 28 209 1.6 9.7 0.00 0.00 0.00 1 1013.0
20260906045352 28 159 3.2 9.7 0.00 0.00 0.00 1 1013.0
20260906044348 28 136 1.6 9.7 0.00 0.00 0.00 1 1013.0
20260906043848 28 153 1.6 9.7 0.00 0.00 0.00 1 1012.9
20260906043348 28 172 3.2 9.7 0.00 0.00 0.00 1 1012.7
20260906042848 28 104 3.2 9.7 0.00 0.00 0.00 1 1012.7
20260906042352 28 144 4.8 16.1 0.00 0.00 0.00 1 1012.7
20260906042348 28 172 4.8 11.3 0.00 0.00 0.00 1 1012.6
20260906041346 28 154 4.8 16.1 0.00 0.00 0.00 1 1012.8
20260906040848 28 153 3.2 12.9 0.00 0.00 0.00 1 1013.0
20260906040844 28 202 4.8 12.9 0.00 0.00 0.00 1 1012.9
20260906035844 28 207 4.8 12.9 0.00 0.00 0.00 1 1013.0
20260906035344 28 155 3.2 12.9 0.00 0.00 0.00 1 1012.9
20260906034842 28 163 3.2 9.7 0.00 0.00 0.00 1 1012.8
20260906034342 29 146 3.2 9.7 0.00 0.00 0.00 1 1012.9
20260906033846 29 151 3.2 11.3 0.00 0.00 0.00 1 1012.8
20260906033842 29 155 3.2 11.3 0.00 0.00 0.00 1 1012.9
20260906032840 29 171 3.2 9.7 0.00 0.00 0.00 1 1012.7
20260906032342 29 190 3.2 11.3 0.00 0.00 0.00 1 1012.7
20260906032338 29 201 3.2 11.3 0.00 0.00 0.00 1 1012.7
20260906031336 30 168 3.2 9.7 0.00 0.00 0.00 2 1012.7
20260906030840 30 96 1.6 6.4 0.00 0.00 0.00 8 1012.8
20260906030836 30 160 3.2 9.7 0.00 0.00 0.00 6 1012.8
20260906025840 30 134 1.6 8.0 0.00 0.00 0.00 14 1012.5
20260906025836 30 103 1.6 8.0 0.00 0.00 0.00 11 1012.6
20260906024836 30 150 1.6 8.0 0.00 0.00 0.00 18 1012.4
20260906024336 30 164 1.6 8.0 0.00 0.00 0.00 21 1012.3
20260906023835 30 190 1.6 9.7 0.00 0.00 0.00 25 1012.2
20260906023338 31 161 1.6 6.4 0.00 0.00 0.00 30 1011.9
20260906023334 31 154 1.6 9.7 0.00 0.00 0.00 28 1012.1
20260906022332 31 167 3.2 6.4 0.00 0.00 0.00 31 1011.9
20260906021832 31 155 1.6 8.0 0.00 0.00 0.00 33 1011.9
20260906021334 31 78 1.6 8.0 0.00 0.00 0.00 34 1011.8
20260906020836 31 239 3.2 11.3 0.00 0.00 0.00 35 1011.8
20260906020832 31 144 3.2 8.0 0.00 0.00 0.00 34 1011.7
20260906015829 31 126 1.6 11.3 0.00 0.00 0.00 36 1011.7
20260906015330 31 92 3.2 9.7 0.00 0.00 0.00 36 1011.6
20260906014834 32 113 3.2 11.3 0.00 0.00 0.00 36 1011.5
20260906014830 32 109 3.2 11.3 0.00 0.00 0.00 36 1011.6
20260906013830 32 98 3.2 9.7 0.00 0.00 0.00 36 1011.4
20260906013330 32 79 3.2 14.5 0.00 0.00 0.00 36 1011.4
20260906012830 32 107 3.2 14.5 0.00 0.00 0.00 36 1011.4
20260906012334 32 153 3.2 14.5 0.00 0.00 0.00 36 1011.2
20260906012330 32 166 3.2 14.5 0.00 0.00 0.00 36 1011.3
20260906011334 32 123 3.2 11.3 0.00 0.00 0.00 36 1011.0
20260906011330 32 90 3.2 11.3 0.00 0.00 0.00 36 1011.0
20260906010330 33 100 3.2 11.3 0.00 0.00 0.00 36 1010.9
20260906005830 33 86 3.2 9.7 0.00 0.00 0.00 36 1010.9
20260906005334 33 142 3.2 16.1 0.00 0.00 0.00 36 1010.9
20260906005329 33 76 3.2 16.1 0.00 0.00 0.00 36 1010.9
20260906004329 33 167 3.2 6.4 0.00 0.00 0.00 36 1010.9
20260906003828 33 112 3.2 12.9 0.00 0.00 0.00 36 1010.9
20260906003324 33 95 4.8 12.9 0.00 0.00 0.00 37 1010.8
20260906002821 33 88 4.8 11.3 0.00 0.00 0.00 37 1010.9
20260906002319 33 58 4.8 11.3 0.00 0.00 0.00 37 1010.8
20260906001820 34 130 4.8 14.5 0.00 0.00 0.00 37 1010.8
20260906001320 34 155 4.8 14.5 0.00 0.00 0.00 38 1010.8
20260906000820 34 94 4.8 14.5 0.00 0.00 0.00 38 1010.7
20260906000319 34 92 4.8 12.9 0.00 0.00 0.00 38 1010.7
20260905235819 35 180 4.8 11.3 0.00 0.00 0.00 38 1010.7
20260905235319 35 183 4.8 11.3 0.00 0.00 0.00 38 1010.6